This is the latest recevied weather packets stored in our database for station/object F4IEI-10. If no packets are shown the sender has not sent any weather packets the latest 10 day(s).
| Time | Temp. | Humidity | Pressure | Rain* | Wind** | Luminosity | Snow |
|---|---|---|---|---|---|---|---|
| 1788573326 | 15.56° C | 100% | 1021.6 hPa | - | - | - | - |
| 1788571533 | 15.56° C | 100% | 1021.4 hPa | - | - | - | - |
| 1788569726 | 15.56° C | 100% | 1021.2 hPa | - | - | - | - |
| 1788567926 | 16.11° C | 100% | 1021.2 hPa | - | - | - | - |
| 1788567022 | 16.67° C | 100% | 1021.2 hPa | - | - | - | - |
| 1788566126 | 16.67° C | 100% | 1021.1 hPa | - | - | - | - |
| 1788565222 | 16.67° C | 100% | 1020.9 hPa | - | - | - | - |
| 1788564322 | 16.67° C | 100% | 1021 hPa | - | - | - | - |
| 1788563422 | 16.67° C | 100% | 1020.8 hPa | - | - | - | - |
| 1788562529 | 16.67° C | 100% | 1020.9 hPa | - | - | - | - |
| 1788561622 | 17.22° C | 100% | 1020.9 hPa | - | - | - | - |
| 1788560729 | 17.22° C | 100% | 1020.7 hPa | - | - | - | - |
| 1788558922 | 17.22° C | 100% | 1020.6 hPa | - | - | - | - |
| 1788557129 | 17.22° C | 100% | 1020.2 hPa | - | - | - | - |
| 1788555324 | 17.78° C | 100% | 1020.2 hPa | - | - | - | - |
| 1788553524 | 17.78° C | 100% | 1019.8 hPa | - | - | - | - |
| 1788552624 | 17.78° C | 100% | 1019.8 hPa | - | - | - | - |
| 1788551724 | 18.33° C | 100% | 1019.8 hPa | - | - | - | - |
| 1788549925 | 18.33° C | 100% | 1019.3 hPa | - | - | - | - |
| 1788548124 | 18.89° C | 100% | 1019.1 hPa | - | - | - | - |
| 1788546324 | 18.89° C | 100% | 1018.4 hPa | - | - | - | - |
| 1788544524 | 19.44° C | 100% | 1018.2 hPa | - | - | - | - |
| 1788542731 | 19.44° C | 100% | 1018.2 hPa | - | - | - | - |
| 1788540924 | 22.78° C | 85% | 1017.4 hPa | - | - | - | - |
| 1788539124 | 23.89° C | 79% | 1017.3 hPa | - | - | - | - |
* Rain since midnight (hover to see other rain measurements)
** Current wind speed in m/s (hover to see current wind gust speed)